Location: Dehesa de la Cepeda
(40.6574°N, 4.3013°W)
Time: 10:23:28
(UTC+00:00)

Transit 2A Rocket - Pass Details

Date: 07 August 2021
Orbit: 586 x 917 km, 66.7° (Epoch: 24 September)

Event Time Altitude Azimuth Distance (km) Brightness Sun altitude
Rises 19:55:59 0° 342° (NNW) 3,270 9.0 -6.1°
Reaches altitude 10° 19:59:14 10° 3° (N) 2,406 7.9 -6.6°
Maximum altitude 20:02:49 17° 43° (NE) 2,015 7.0 -7.2°
Drops below altitude 10° 20:06:31 10° 83° (E) 2,522 7.2 -7.9°
Enters shadow 20:07:55 - 92° (E) 2,878 7.4 -8.1°
Sets 20:10:01 0° 102° (ESE) 3,501 - -8.4°
